{"data":{"norad_id":68357,"intl_designator":"2026-060H","name":"CENTISPACE-2 S8","alt_names":[],"object_type":"PAYLOAD","status":"ACTIVE","operator":null,"country":"PRC","launch_date":"2026-03-22","launch_site_code":"YSLA","launch_vehicle":null,"mission":null,"orbit_class":"UNKNOWN","rcs_meters":null,"size_class":null,"mass_kg":null,"dimensions":null,"purposes":[],"wikipedia_slug":null,"has_3d_model":false,"image_url":null,"decayed_at":null,"tle_current":{"epoch":"2026-05-25T08:37:27.786432Z","epoch_age_seconds":43725,"freshness":"FRESH","line1":"1 68357U 26060H   26145.35934938  .00001029  00000+0  18840-3 0  9990","line2":"2 68357  54.9844 129.0193 0012898  88.7969 271.4507 14.73562343  9402","mean_motion":14.73562343,"eccentricity":0.0012898,"inclination_deg":54.9844,"raan_deg":129.0193,"arg_perigee_deg":88.7969,"mean_anomaly_deg":271.4507,"bstar":0.0001884,"rev_number":940,"period_min":97.722366945692,"perigee_km":640.6541051894,"apogee_km":658.78316158128,"semimajor_km":7027.8556333853,"source":"CELESTRAK","updated_at":"2026-05-25T13:38:07.762270Z"}}}